Brainerd, MN

6:48 PM CDT on April 23, 2017 (GMT -0500)
Brainerd-Crow Wing County Regional

Weather History for KBRD - October, 2012

Change the Weather History Date:

Sunday, October 14, 2012

  Actual Average Record
Temperature  
Mean Temperature 47 °F -  
Max Temperature 59 °F 57 °F 80 °F (1956)
Min Temperature 37 °F 34 °F 22 °F (1979)
Degree Days  
Heating Degree Days 18    
Moisture  
Dew Point 37 °F    
Average Humidity 77    
Maximum Humidity 93    
Minimum Humidity 39    
Precipitation  
Precipitation 0.00 in - - ()
Sea Level Pressure  
Sea Level Pressure 29.85 in    
Wind  
Wind Speed 4 mph (North)    
Max Wind Speed 14 mph    
Max Gust Speed 22 mph    
Visibility 6 miles    
Events Fog    
Averages and records for this station are not official NWS values.
T = Trace of Precipitation, MM = Missing Value Source: NWS Daily Summary

Daily Weather History Graph

Daily Weather History Graph

Search for Another Location

Airport or City:

Trip Planner

Search our weather history database for the weather conditions in past years. The results will help you decide how hot, cold, wet, or windy it might be!

Date:

Astronomy

Oct. 14, 2012 Rise Set
Actual Time 7:33 AM CDT 6:30 PM CDT
Civil Twilight 7:02 AM CDT 7:01 PM CDT
Nautical Twilight 6:27 AM CDT 7:35 PM CDT
Astronomical Twilight 5:53 AM CDT 8:10 PM CDT
Moon 6:32 AM CDT (10/14) 5:50 PM CDT (10/14)
Length of Visible Light 11h 58m
Length of Day
10h 57m
Waning Crescent, 1% of the Moon is Illuminated
Oct 14
Waning Crescent
Oct 15
New
Oct 21
First Quarter
Oct 29
Full
Nov 6
Last Quarter

Hourly Weather History & Observations

Time (CDT) Temp. Windchill Dew Point Humidity Pressure Visibility Wind Dir Wind Speed Gust Speed Precip Events Conditions
12:06 AM 39.2 °F - 35.6 °F 87% 29.78 in 0.5 mi Calm Calm - N/A Fog Fog
12:17 AM 39.2 °F - 35.6 °F 87% 29.78 in 0.2 mi Calm Calm - N/A Fog Fog
12:53 AM 37.9 °F - 36.0 °F 93% 29.80 in 0.2 mi Calm Calm - N/A Fog Fog
1:53 AM 39.0 °F - 37.0 °F 93% 29.80 in 0.2 mi Calm Calm - N/A Fog Fog
2:42 AM 39.2 °F - 37.4 °F 93% 29.79 in 0.2 mi Calm Calm - N/A Fog Fog
2:53 AM 39.9 °F 37.8 °F 37.9 °F 93% 29.81 in 0.2 mi NNE 3.5 mph - N/A Fog Fog
3:12 AM 39.2 °F 37.0 °F 37.4 °F 93% 29.79 in 0.2 mi NE 3.5 mph - N/A Fog Fog
3:53 AM 41.0 °F 39.0 °F 39.0 °F 93% 29.83 in 0.2 mi ENE 3.5 mph - N/A Fog Fog
4:53 AM 41.0 °F 38.0 °F 39.0 °F 93% 29.84 in 0.2 mi NNE 4.6 mph - N/A Fog Fog
5:48 AM 41.0 °F 38.0 °F 37.4 °F 87% 29.82 in 0.5 mi NNE 4.6 mph - N/A Fog Fog
5:53 AM 41.0 °F 36.4 °F 37.9 °F 89% 29.84 in 0.5 mi North 6.9 mph - N/A Fog Fog
6:53 AM 39.9 °F 35.8 °F 37.9 °F 93% 29.85 in 1.2 mi North 5.8 mph - N/A   Overcast
7:12 AM 39.2 °F 35.0 °F 37.4 °F 93% 29.82 in 2.0 mi North 5.8 mph - N/A   Overcast
7:34 AM 39.2 °F 37.0 °F 37.4 °F 93% 29.82 in 4.0 mi North 3.5 mph - N/A   Overcast
7:53 AM 39.0 °F 34.8 °F 37.0 °F 93% 29.85 in 7.0 mi North 5.8 mph - N/A   Overcast
8:53 AM 41.0 °F 38.0 °F 39.0 °F 93% 29.87 in 5.0 mi North 4.6 mph - N/A   Overcast
9:53 AM 44.1 °F 38.6 °F 39.9 °F 85% 29.87 in 7.0 mi NNE 10.4 mph - N/A   Overcast
10:16 AM 46.4 °F 41.9 °F 41.0 °F 81% 29.85 in 8.0 mi NNE 9.2 mph - N/A   Overcast
10:48 AM 48.2 °F - 41.0 °F 76% 29.85 in 10.0 mi NNE 8.1 mph - N/A   Mostly Cloudy
10:53 AM 48.0 °F - 41.0 °F 77% 29.88 in 10.0 mi NNE 6.9 mph - N/A   Mostly Cloudy
11:00 AM 48.2 °F - 39.2 °F 71% 29.85 in 10.0 mi North 6.9 mph - N/A   Mostly Cloudy
11:53 AM 53.1 °F - 39.0 °F 59% 29.87 in 10.0 mi North 12.7 mph 18.4 mph N/A   Partly Cloudy
12:53 PM 54.0 °F - 37.0 °F 53% 29.86 in 10.0 mi North 11.5 mph - N/A   Scattered Clouds
1:53 PM 55.9 °F - 36.0 °F 47% 29.85 in 10.0 mi NNW 12.7 mph 19.6 mph N/A   Partly Cloudy
3:53 PM 57.9 °F - 33.1 °F 39% 29.84 in 10.0 mi NNW 13.8 mph 21.9 mph N/A   Scattered Clouds
4:53 PM 55.0 °F - 36.0 °F 49% 29.86 in 10.0 mi North 11.5 mph - N/A   Scattered Clouds
5:53 PM 55.0 °F - 37.0 °F 51% 29.87 in 10.0 mi North 10.4 mph - N/A   Overcast
6:53 PM 50.0 °F - 36.0 °F 59% 29.87 in 10.0 mi NNW 3.5 mph - N/A   Partly Cloudy
7:53 PM 46.9 °F - 36.0 °F 66% 29.89 in 10.0 mi NNW 4.6 mph - N/A   Clear
8:53 PM 44.1 °F 40.8 °F 34.0 °F 68% 29.91 in 10.0 mi NW 5.8 mph - N/A   Clear
9:53 PM 42.1 °F 38.4 °F 32.0 °F 67% 29.91 in 10.0 mi NNW 5.8 mph - N/A   Clear
10:53 PM 43.0 °F 40.3 °F 32.0 °F 65% 29.92 in 10.0 mi NW 4.6 mph - N/A   Clear
11:53 PM 42.1 °F 38.4 °F 32.0 °F 67% 29.92 in 10.0 mi NNW 5.8 mph - N/A   Clear